Budapest Ferihegy, Hungary

11:48 PM CEST on August 17, 2017 (GMT +0200)
Ferihegy

Weather History for LHBP - March, 2013

Change the Weather History Date:

Saturday, March 2, 2013

  Actual Average Record
Temperature  
Mean Temperature 36 °F -  
Max Temperature 46 °F 50 °F 60 °F (1997)
Min Temperature 26 °F 31 °F 3 °F (2005)
Degree Days  
Heating Degree Days 29    
Moisture  
Dew Point 27 °F    
Average Humidity 69    
Maximum Humidity 93    
Minimum Humidity 43    
Precipitation  
Precipitation 0.00 in - - ()
Sea Level Pressure  
Sea Level Pressure 30.11 in    
Wind  
Wind Speed 7 mph ()    
Max Wind Speed 13 mph    
Max Gust Speed -    
Visibility 6.2 miles    
Events      
Averages and records for this station are not official NWS values.
T = Trace of Precipitation, MM = Missing Value Source: Averaged Metar Reports

Daily Weather History Graph

Daily Weather History Graph

Search for Another Location

Airport or City:

Trip Planner

Search our weather history database for the weather conditions in past years. The results will help you decide how hot, cold, wet, or windy it might be!

Date:

Astronomy

Mar. 02, 2013 Rise Set
Actual Time 6:21 AM CET 5:29 PM CET
Civil Twilight 5:50 AM CET 6:00 PM CET
Nautical Twilight 5:15 AM CET 6:35 PM CET
Astronomical Twilight 4:39 AM CET 7:11 PM CET
Moon 11:14 PM CET (3/2) 8:13 AM CET (3/2)
Length of Visible Light 12h 09m
Length of Day
11h 08m
Waning Gibbous, 76% of the Moon is Illuminated
Mar 2
Waning Gibbous
Mar 4
Last Quarter
Mar 11
New
Mar 19
First Quarter
Mar 27
Full

Hourly Weather History & Observations

Time (CET) Temp. Windchill Dew Point Humidity Pressure Visibility Wind Dir Wind Speed Gust Speed Precip Events Conditions
12:00 AM 35.6 °F 27.5 °F 32.0 °F 87% 30.04 in 6.2 mi WNW 11.5 mph - N/A   Scattered Clouds
12:30 AM 35.6 °F 27.1 °F 32.0 °F 87% 30.06 in 6.2 mi NW 12.7 mph - N/A   Mostly Cloudy
1:00 AM 35.6 °F 27.5 °F 32.0 °F 87% 30.06 in 6.2 mi NW 11.5 mph - N/A   Mostly Cloudy
1:30 AM 35.6 °F 30.7 °F 32.0 °F 87% 30.06 in 6.2 mi NNW 5.8 mph - N/A   Mostly Cloudy
2:00 AM 35.6 °F 29.9 °F 32.0 °F 87% 30.06 in 6.2 mi NNW 6.9 mph - N/A   Mostly Cloudy
2:30 AM 35.6 °F 30.7 °F 32.0 °F 87% 30.06 in 6.2 mi NNW 5.8 mph - N/A   Mostly Cloudy
3:00 AM 35.6 °F 30.7 °F 30.2 °F 81% 30.09 in 6.2 mi NNW 5.8 mph - N/A   Mostly Cloudy
3:30 AM 35.6 °F - 30.2 °F 81% 30.09 in 6.2 mi Variable 1.2 mph - N/A   Mostly Cloudy
4:00 AM 35.6 °F 32.8 °F 30.2 °F 81% 30.09 in 6.2 mi Variable 3.5 mph - N/A   Mostly Cloudy
4:30 AM 35.6 °F 31.7 °F 32.0 °F 87% 30.09 in 6.2 mi WNW 4.6 mph - N/A   Mostly Cloudy
5:00 AM 35.6 °F 29.9 °F 30.2 °F 81% 30.09 in 6.2 mi West 6.9 mph - N/A   Mostly Cloudy
5:30 AM 33.8 °F 27.7 °F 26.6 °F 75% 30.12 in 6.2 mi West 6.9 mph - N/A   Scattered Clouds
6:00 AM 32.0 °F 22.5 °F 26.6 °F 80% 30.12 in 6.2 mi West 12.7 mph - N/A   Scattered Clouds
6:30 AM 30.2 °F 20.8 °F 26.6 °F 86% 30.12 in 6.2 mi WNW 11.5 mph - N/A   Scattered Clouds
7:00 AM 32.0 °F 25.6 °F 28.4 °F 87% 30.12 in - NW 6.9 mph - N/A   Clear
7:30 AM 33.8 °F 27.0 °F 30.2 °F 87% 30.12 in - WNW 8.1 mph - N/A   Clear
8:00 AM 35.6 °F 28.0 °F 30.2 °F 81% 30.12 in - WNW 10.4 mph - N/A   Clear
8:30 AM 37.4 °F 30.8 °F 30.2 °F 75% 30.15 in - NW 9.2 mph - N/A   Clear
9:00 AM 37.4 °F 31.4 °F 30.2 °F 75% 30.15 in - WNW 8.1 mph - N/A   Clear
9:30 AM 39.2 °F 33.6 °F 30.2 °F 70% 30.15 in - WNW 8.1 mph - N/A   Clear
10:00 AM 41.0 °F 34.3 °F 28.4 °F 61% 30.15 in - NW 11.5 mph - N/A   Clear
10:30 AM 41.0 °F 35.2 °F 26.6 °F 57% 30.15 in - NW 9.2 mph - N/A   Clear
11:00 AM 42.8 °F 37.0 °F 23.0 °F 46% 30.15 in 6.2 mi NNW 10.4 mph - N/A   Scattered Clouds
11:30 AM 42.8 °F 37.5 °F 23.0 °F 46% 30.15 in 6.2 mi NW 9.2 mph - N/A   Scattered Clouds
12:00 PM 42.8 °F 39.3 °F 23.0 °F 46% 30.15 in 6.2 mi NNW 5.8 mph - N/A   Scattered Clouds
12:30 PM 46.4 °F 42.9 °F 26.6 °F 46% 30.15 in 6.2 mi North 6.9 mph - N/A   Scattered Clouds
1:00 PM 42.8 °F 39.3 °F 23.0 °F 46% 30.12 in 6.2 mi NW 5.8 mph - N/A   Scattered Clouds
1:30 PM 46.4 °F 42.4 °F 26.6 °F 46% 30.12 in 6.2 mi West 8.1 mph - N/A   Scattered Clouds
2:00 PM 46.4 °F 44.3 °F 24.8 °F 43% 30.12 in - West 4.6 mph - N/A   Clear
2:30 PM 44.6 °F 40.2 °F 23.0 °F 43% 30.12 in - WNW 8.1 mph - N/A   Clear
3:00 PM 44.6 °F 42.2 °F 23.0 °F 43% 30.09 in - NW 4.6 mph - N/A   Clear
3:30 PM 46.4 °F 45.2 °F 24.8 °F 43% 30.09 in - Variable 3.5 mph - N/A   Clear
4:00 PM 44.6 °F 40.7 °F 24.8 °F 46% 30.09 in - West 6.9 mph - N/A   Clear
4:30 PM 44.6 °F 41.4 °F 24.8 °F 46% 30.09 in - NW 5.8 mph - N/A   Clear
5:00 PM 42.8 °F 38.6 °F 26.6 °F 53% 30.12 in - WNW 6.9 mph - N/A   Clear
5:30 PM 42.8 °F 39.3 °F 24.8 °F 49% 30.12 in - WNW 5.8 mph - N/A   Clear
6:00 PM 39.2 °F 32.5 °F 26.6 °F 61% 30.12 in - WNW 10.4 mph - N/A   Clear
6:30 PM 35.6 °F 29.2 °F 26.6 °F 70% 30.12 in - West 8.1 mph - N/A   Clear
7:00 PM 35.6 °F 30.7 °F 24.8 °F 65% 30.12 in - West 5.8 mph - N/A   Clear
7:30 PM 37.4 °F 32.1 °F 24.8 °F 60% 30.12 in - West 6.9 mph - N/A   Clear
8:00 PM 35.6 °F - 24.8 °F 65% 30.12 in - Variable 1.2 mph - N/A   Clear
8:30 PM 33.8 °F - 26.6 °F 75% 30.12 in - Variable 2.3 mph - N/A   Clear
9:00 PM 32.0 °F - 24.8 °F 75% 30.12 in - Variable 1.2 mph - N/A   Clear
9:30 PM 28.4 °F - 24.8 °F 86% 30.12 in - Calm Calm - N/A   Clear
10:00 PM 28.4 °F - 24.8 °F 86% 30.15 in - Variable 2.3 mph - N/A   Clear
10:30 PM 26.6 °F - 24.8 °F 93% 30.12 in - Variable 1.2 mph - N/A   Clear
11:00 PM 26.6 °F - 23.0 °F 86% 30.12 in - Variable 1.2 mph - N/A   Clear
11:30 PM 26.6 °F - 24.8 °F 93% 30.12 in - Variable 2.3 mph - N/A   Clear